Location: Unspecified
(0.0000°N, 0.0000°E)
Time: 23:39:09
(UTC+00:00)

Vanguard 1 - Pass Details

Date: 09 October 2020
Orbit: 649 x 3833 km, 34.3° (Epoch: 28 October)

Event Time Altitude Azimuth Distance (km) Brightness Sun altitude
Rises 02:18:33 0° 311° (NW) 2,962 - -51.7°
Reaches altitude 10° 02:20:36 10° 313° (NW) 2,119 - -51.2°
Maximum altitude 02:25:14 73° 38° (NE) 867 - -50.1°
Exits shadow 02:30:25 17° 120° (ESE) 2,443 12.4 -48.8°
Drops below altitude 10° 02:32:16 10° 122° (ESE) 3,162 13.1 -48.3°
Sets 02:35:58 0° 124° (ESE) 4,584 14.1 -47.4°
